Location: Burgberg
(50.1428°N, 11.0671°E)
Time: 22:56:57
(UTC+00:00)

STARLINK-1031 - Pass Details

Date: 26 January 2020
Orbit: 517 x 519 km, 53.0° (Epoch: 18 February)

Event Time Altitude Azimuth Distance (km) Brightness Sun altitude
Exits shadow 04:48:02 34° 200° (SSW) 871 4.4 -20.7°
Drops below altitude 10° 04:53:08 10° 73° (ENE) 1,739 7.2 -19.9°
Enters shadow 05:49:53 -69° 251° (WSW) 12,417 10.4 -11.0°
Maximum altitude 06:28:03 64° 348° (NNW) 572 3.6 -5.2°
